Wind_Speed
16 15 15 14 14 13 13 12 12 12 12 12 12 12 11 11 11 11 11 10 10 10 10 10 10 11 11 11 11 11 11 11 12 12 12 12 13 13 13 13 14 14 15
16 16 16 15 15 15 14 14 13 13 13 13 12 13 13 12 12 11 11 11 11 11 11 11 11 11 12 12 12 12 12 12 13 12 13 14 14 14 14 14 15 15 16
17 17 17 16 16 16 15 15 14 14 14 14 14 14 13 13 12 12 12 12 11 12 12 12 12 12 12 12 12 12 13 13 13 14 14 15 15 15 15 16 16 16 17
17 18 18 17 17 17 16 16 16 16 15 15 14 14 14 14 13 13 12 12 12 12 13 13 12 12 13 13 13 13 14 14 15 15 16 16 16 16 16 17 17 18 19
18 18 18 18 18 18 17 17 17 16 16 16 15 15 14 14 14 14 13 13 13 13 13 13 13 13 14 14 14 15 15 16 16 16 16 17 17 17 18 18 19 20 20
19 19 19 18 18 18 18 18 18 18 17 17 16 16 16 16 16 15 15 15 15 15 14 14 14 14 14 15 16 16 17 17 17 17 17 18 18 19 19 20 20 21 21
19 19 20 19 19 18 18 19 19 19 19 18 18 18 18 17 17 17 17 17 17 16 16 16 16 16 16 17 17 17 18 19 18 18 18 19 20 20 20 21 22 22 22
20 20 20 21 20 20 20 20 20 20 19 20 19 20 19 18 18 18 18 18 17 17 17 17 17 18 18 18 18 19 19 20 20 20 20 21 21 22 23 23 23 23 24
22 21 22 22 22 22 21 21 21 20 20 20 20 20 19 19 19 19 19 19 18 18 18 19 19 19 19 19 20 20 20 21 21 21 22 22 23 23 24 24 24 24 25
23 23 23 24 24 23 23 22 22 21 21 21 21 20 20 20 20 20 20 19 19 19 20 20 21 21 21 21 22 22 22 22 23 23 23 24 25 25 25 25 25 26 26
24 25 25 25 24 24 24 24 24 23 22 22 22 22 22 22 22 21 21 21 21 21 21 22 22 22 23 23 23 23 24 24 24 24 24 25 25 26 26 26 27 27 27
27 27 26 27 26 26 26 26 26 25 25 24 24 24 23 23 23 23 24 23 23 24 24 24 24 24 25 25 25 25 25 25 25 25 25 26 26 27 27 27 28 28 28
29 29 29 29 28 28 27 27 26 27 26 26 26 25 25 25 25 25 26 26 26 25 26 26 26 26 26 27 27 26 26 26 26 26 27 28 28 28 28 28 28 29 29
30 30 30 29 29 29 29 29 28 28 28 28 27 27 27 27 27 27 27 27 27 27 27 27 27 27 28 28 28 28 28 28 28 29 29 30 30 30 30 29 29 29 29
30 30 30 30 30 30 30 29 29 29 29 29 28 28 28 28 28 29 29 29 29 29 28 28 28 29 29 29 29 29 30 30 30 31 31 31 30 30 30 30 30 31 31
31 31 31 31 31 31 31 31 31 31 31 30 30 30 30 30 30 30 30 30 30 31 30 30 30 30 30 30 30 30 30 31 31 31 32 32 32 31 31 32 32 32 32
32 32 32 33 33 32 33 33 32 32 32 32 32 31 31 31 31 31 31 32 32 32 32 31 31 30 30 30 30 30 31 31 32 32 32 33 32 32 32 32 33 33 33
34 34 34 34 34 34 34 34 34 34 33 33 34 34 34 33 33 33 33 33 33 33 32 32 32 31 31 31 31 32 32 32 33 33 33 33 33 33 33 33 33 34 34
35 35 35 35 34 35 35 35 34 34 35 34 35 36 36 35 34 34 34 34 34 34 34 34 34 33 33 32 32 33 33 33 33 34 34 34 34 34 34 34 35 35 35
36 36 36 35 35 35 35 35 35 35 35 35 35 35 35 36 35 35 35 36 35 35 35 34 34 34 34 34 34 33 33 33 34 35 35 35 35 35 35 36 36 37 37
35 36 36 35 35 35 36 36 36 36 36 36 36 36 36 36 36 36 36 36 36 36 35 35 35 35 35 34 34 34 34 35 35 36 36 35 36 36 36 36 37 37 38
34 35 35 35 35 35 36 36 36 36 37 37 36 36 36 36 36 36 36 36 36 36 35 35 35 35 35 35 35 35 36 36 37 37 37 37 37 37 37 38 38 38 39
34 34 34 33 34 35 36 36 36 37 37 37 36 36 36 36 36 35 35 36 36 36 35 36 36 36 37 37 37 37 37 38 38 38 38 38 38 38 38 38 38 38 38
34 33 33 33 34 35 35 35 35 35 36 37 37 36 36 36 36 36 36 36 36 36 36 36 37 37 37 38 38 38 38 39 39 39 38 38 38 39 39 39 39 39 39
33 34 33 33 34 35 35 35 35 36 36 36 37 37 37 37 37 37 37 37 37 38 37 37 37 38 38 38 38 38 38 38 39 39 39 39 39 40 39 40 40 40 39
33 33 33 33 34 35 35 35 35 35 36 36 37 37 37 37 38 38 39 39 38 38 38 37 37 37 37 37 37 37 38 39 39 39 38 39 39 40 40 40 40 39 39
Wind_Direction
269 270 273 276 276 275 277 280 280 278 278 278 277 276 277 282 286 288 287 282 276 275 278 281 284 285 286 287 288 289 291 294 294 296 298 302 304 305 306 307 305 305 306
267 268 270 271 273 273 274 275 276 275 276 277 277 278 277 279 282 284 285 284 281 280 281 281 281 282 284 287 289 290 292 295 295 295 298 300 302 303 304 304 304 304 305
267 267 267 267 269 271 271 271 272 273 274 276 277 278 278 279 281 281 281 283 281 282 283 284 281 282 284 287 289 290 292 294 293 294 297 299 299 300 301 302 302 304 305
266 265 265 266 267 269 271 271 273 274 273 275 278 279 280 280 279 279 281 279 279 281 282 284 281 282 285 287 287 291 293 294 295 294 296 297 298 299 300 300 300 302 303
264 264 264 265 266 267 270 271 272 274 274 273 274 276 279 280 279 278 279 278 279 280 281 282 281 282 285 287 287 289 292 294 296 296 294 295 296 297 299 299 299 301 303
263 262 265 265 265 266 267 269 271 271 272 273 270 273 276 279 280 281 277 275 278 278 277 278 280 281 284 287 288 289 290 292 294 294 294 294 294 295 297 299 300 300 302
265 264 264 265 264 265 267 269 271 271 270 271 270 271 274 278 279 280 276 274 276 277 274 274 278 281 283 286 289 290 291 292 291 293 294 294 293 294 296 298 299 301 302
264 262 263 263 263 264 266 269 272 271 270 270 272 271 271 274 278 279 275 273 274 276 277 276 277 280 282 284 289 291 291 292 292 292 293 294 293 294 296 296 297 299 301
267 265 263 263 264 265 266 267 269 270 270 269 270 271 270 271 274 277 274 273 271 274 277 278 277 279 281 283 286 289 290 291 291 291 291 293 293 293 294 295 297 298 299
267 265 264 264 264 266 266 266 268 269 270 269 269 271 271 270 272 273 273 271 270 273 275 278 279 279 279 282 285 288 290 291 291 290 291 292 293 293 294 294 296 297 297
267 265 264 264 264 265 266 266 267 267 269 270 269 270 272 272 271 272 272 271 270 272 274 277 279 279 279 282 285 288 290 291 291 291 291 293 294 293 293 294 295 296 296
267 266 265 264 263 264 265 266 266 267 268 269 269 270 270 272 272 271 271 271 271 271 272 275 278 279 281 282 283 286 288 290 291 291 291 293 295 295 293 293 294 295 296
267 267 266 265 262 262 264 264 266 266 267 269 269 270 269 271 271 271 271 272 272 273 274 275 276 279 281 282 283 284 285 287 289 290 291 292 293 294 294 294 293 294 295
267 266 266 265 263 263 264 265 265 266 267 269 269 269 270 271 271 271 270 271 272 274 275 275 276 277 280 282 283 283 284 286 289 290 292 293 293 294 294 293 293 294 295
267 266 265 265 264 263 264 264 265 266 267 268 269 269 270 271 271 270 270 271 273 274 274 274 276 277 280 282 282 282 284 286 289 290 291 292 293 293 293 293 293 294 294
267 266 265 265 265 263 263 263 264 265 266 267 268 269 269 270 271 270 270 270 272 274 275 276 277 278 278 281 282 282 284 286 288 289 290 291 292 293 292 292 293 293 293
266 265 265 265 265 264 264 264 264 264 265 267 267 267 268 269 270 269 269 270 272 274 275 276 276 278 278 279 281 282 285 286 288 289 290 291 291 292 292 292 292 292 292
266 266 265 264 265 265 265 264 264 264 265 265 266 266 267 268 268 268 269 270 271 273 274 274 275 277 277 278 280 282 284 287 288 289 290 291 291 291 292 292 292 292 293
264 264 264 264 264 264 264 263 263 264 265 265 266 267 267 269 269 268 268 270 271 272 273 274 275 276 277 277 279 281 283 285 288 289 290 291 291 291 292 292 292 293 293
263 264 264 263 263 263 263 262 262 263 266 267 268 269 269 269 268 268 269 270 271 271 271 273 274 274 275 277 278 280 282 285 288 290 291 292 292 292 292 292 292 292 293
263 263 263 262 262 262 262 263 263 264 266 267 268 270 270 270 270 270 270 271 272 272 272 273 274 273 274 275 277 279 282 285 287 290 291 292 292 292 292 292 292 292 293
264 264 264 263 262 262 262 263 263 265 266 267 269 270 269 269 270 270 269 270 272 272 272 272 273 273 274 275 277 279 281 284 287 289 290 290 291 292 292 292 292 292 293
265 265 265 263 263 263 263 264 264 265 267 268 268 268 268 268 270 270 270 270 271 272 272 273 273 274 275 275 277 278 280 282 285 288 289 289 290 292 292 292 292 292 293
264 265 265 264 264 263 263 264 265 266 268 269 268 268 268 268 269 269 270 271 271 271 272 273 274 274 275 275 276 278 279 282 285 287 288 289 290 291 291 291 291 291 292
265 264 264 263 264 263 263 264 265 267 268 268 268 268 267 268 269 269 270 270 270 270 272 275 275 274 274 274 275 277 280 281 284 286 287 289 290 291 291 291 291 292 291
265 265 265 265 264 265 265 265 265 267 268 268 268 268 268 269 270 270 270 271 271 271 271 273 274 274 275 275 275 277 279 280 283 286 288 289 290 290 290 290 290 291 291
Height
5835 5836 5836 5836 5836 5836 5837 5837 5837 5837 5837 5838 5838 5838 5838 5838 5837 5837 5837 5837 5836 5836 5836 5836 5836 5835 5835 5835 5834 5834 5833 5833 5832 5831 5831 5830 5829 5827 5826 5825 5823 5822 5821
5831 5832 5832 5833 5833 5833 5833 5833 5834 5834 5834 5835 5835 5835 5835 5834 5834 5834 5834 5834 5834 5833 5833 5833 5833 5833 5832 5832 5831 5831 5830 5830 5829 5828 5827 5826 5825 5824 5823 5821 5820 5818 5817
5827 5828 5828 5829 5829 5829 5830 5830 5830 5830 5831 5831 5831 5831 5831 5831 5831 5831 5831 5831 5831 5830 5830 5830 5830 5830 5829 5829 5828 5827 5827 5826 5825 5824 5823 5822 5821 5820 5819 5817 5816 5814 5813
5823 5823 5824 5824 5825 5825 5826 5826 5826 5827 5827 5827 5827 5828 5828 5828 5828 5828 5828 5827 5827 5827 5827 5827 5826 5826 5826 5825 5825 5824 5823 5822 5821 5820 5819 5818 5817 5816 5814 5813 5811 5810 5808
5818 5819 5819 5820 5820 5821 5821 5822 5822 5823 5823 5823 5823 5824 5824 5824 5824 5824 5824 5824 5824 5823 5823 5823 5823 5822 5822 5821 5821 5820 5819 5818 5817 5816 5815 5814 5812 5811 5810 5808 5806 5805 5803
5813 5814 5814 5815 5816 5816 5817 5817 5818 5818 5818 5819 5819 5819 5819 5819 5819 5819 5819 5819 5819 5819 5819 5819 5819 5818 5818 5817 5816 5816 5815 5814 5813 5811 5810 5809 5808 5806 5805 5803 5801 5799 5798
5807 5808 5809 5809 5810 5811 5812 5812 5813 5813 5813 5814 5814 5814 5815 5815 5814 5814 5814 5815 5815 5815 5815 5815 5814 5814 5813 5813 5812 5811 5810 5808 5807 5806 5805 5804 5802 5801 5799 5797 5795 5793 5791
5801 5802 5803 5803 5804 5806 5806 5807 5807 5807 5808 5808 5809 5809 5809 5810 5810 5809 5809 5809 5810 5810 5810 5810 5809 5809 5808 5808 5807 5806 5804 5803 5802 5800 5799 5798 5796 5795 5793 5791 5789 5787 5785
5794 5795 5796 5797 5798 5799 5800 5801 5801 5802 5802 5803 5803 5803 5804 5804 5804 5804 5804 5804 5804 5805 5804 5804 5804 5804 5803 5802 5801 5800 5799 5797 5796 5794 5793 5791 5790 5788 5786 5784 5782 5780 5778
5787 5788 5789 5790 5791 5792 5793 5794 5795 5795 5796 5797 5797 5798 5798 5798 5798 5798 5798 5799 5799 5799 5799 5798 5798 5797 5797 5796 5795 5794 5793 5791 5789 5788 5786 5785 5783 5781 5779 5777 5775 5773 5771
5780 5780 5781 5782 5783 5785 5786 5787 5788 5789 5790 5790 5791 5791 5792 5792 5792 5792 5792 5792 5793 5792 5792 5792 5791 5791 5790 5789 5788 5787 5786 5784 5783 5781 5780 5778 5776 5774 5772 5770 5768 5765 5763
5772 5772 5773 5774 5775 5777 5778 5779 5780 5781 5783 5783 5784 5784 5785 5785 5785 5785 5785 5785 5785 5786 5786 5785 5784 5784 5783 5782 5781 5780 5778 5777 5775 5774 5772 5771 5769 5767 5764 5762 5760 5757 5755
5763 5764 5765 5765 5767 5768 5770 5771 5772 5774 5775 5776 5776 5777 5777 5778 5778 5778 5778 5778 5777 5778 5778 5778 5777 5776 5775 5774 5773 5772 5771 5769 5768 5766 5765 5763 5760 5758 5756 5754 5751 5749 5746
5754 5755 5756 5757 5758 5760 5761 5762 5764 5765 5766 5767 5768 5768 5769 5769 5769 5769 5769 5769 5769 5769 5769 5769 5768 5768 5767 5766 5765 5764 5763 5761 5759 5758 5756 5754 5751 5749 5747 5745 5743 5741 5738
5745 5746 5747 5748 5749 5751 5752 5754 5755 5756 5757 5758 5759 5759 5760 5761 5761 5761 5761 5761 5761 5761 5760 5760 5760 5759 5759 5758 5756 5755 5754 5752 5750 5749 5747 5744 5742 5740 5738 5735 5733 5731 5729
5736 5737 5738 5739 5740 5741 5743 5745 5746 5747 5748 5749 5749 5750 5750 5751 5751 5751 5751 5751 5751 5751 5751 5751 5751 5750 5750 5749 5747 5746 5745 5743 5741 5739 5737 5735 5733 5730 5728 5726 5723 5721 5719
5726 5727 5728 5729 5730 5732 5733 5734 5736 5737 5738 5739 5739 5740 5740 5741 5741 5741 5741 5741 5741 5741 5741 5742 5741 5741 5740 5739 5738 5736 5735 5733 5731 5729 5727 5725 5722 5720 5718 5715 5713 5711 5708
5715 5716 5718 5719 5720 5721 5723 5724 5725 5726 5728 5728 5729 5729 5729 5730 5730 5730 5730 5731 5731 5731 5731 5731 5731 5730 5730 5729 5728 5726 5725 5723 5721 5719 5716 5714 5712 5710 5707 5705 5703 5700 5697
5704 5705 5707 5708 5709 5710 5712 5713 5714 5715 5716 5717 5718 5718 5718 5718 5719 5719 5719 5720 5720 5720 5720 5720 5720 5719 5719 5718 5717 5716 5714 5712 5710 5708 5706 5704 5701 5699 5697 5694 5692 5689 5686
5693 5694 5695 5697 5698 5699 5701 5702 5703 5704 5705 5706 5707 5707 5707 5707 5707 5708 5708 5708 5708 5709 5709 5708 5708 5708 5707 5707 5706 5705 5703 5702 5700 5697 5695 5693 5691 5688 5686 5683 5681 5678 5675
5681 5683 5684 5685 5687 5688 5689 5690 5692 5693 5694 5695 5696 5695 5695 5695 5696 5696 5696 5696 5696 5696 5697 5696 5696 5696 5696 5695 5694 5694 5692 5691 5689 5687 5684 5682 5680 5677 5675 5672 5669 5666 5663
5670 5671 5673 5674 5675 5677 5678 5679 5680 5681 5682 5683 5684 5684 5684 5684 5684 5684 5685 5685 5685 5685 5685 5684 5684 5684 5684 5683 5683 5682 5681 5679 5678 5675 5673 5671 5668 5666 5663 5660 5657 5655 5652
5660 5661 5662 5663 5664 5666 5667 5668 5669 5670 5670 5671 5671 5672 5672 5672 5672 5672 5673 5673 5673 5673 5673 5672 5672 5672 5672 5671 5670 5669 5668 5667 5666 5664 5661 5659 5657 5654 5651 5648 5646 5643 5640
5649 5650 5651 5652 5653 5654 5655 5656 5657 5658 5658 5658 5659 5659 5660 5660 5660 5660 5661 5661 5661 5661 5660 5660 5659 5659 5659 5658 5657 5656 5655 5654 5653 5651 5649 5647 5644 5642 5639 5636 5633 5630 5627
5638 5639 5640 5641 5642 5642 5644 5644 5645 5646 5646 5646 5647 5647 5647 5648 5648 5648 5648 5648 5648 5648 5648 5647 5647 5646 5645 5645 5644 5644 5643 5641 5640 5638 5636 5634 5632 5629 5627 5624 5621 5618 5615
5628 5629 5629 5630 5630 5631 5632 5633 5633 5634 5634 5634 5635 5635 5635 5635 5635 5635 5635 5635 5635 5635 5635 5635 5634 5634 5633 5632 5632 5631 5630 5629 5627 5626 5623 5621 5619 5617 5614 5612 5609 5606 5603